Wind_Speed
28 27 29 30 30 33 37 40 45 50 53 55 58 64 67 67 67 71 74 76 80 80 80 84 87 85 79 80 79 82 77 83 77 65 57 48 49 52 76 88 107 136 148 143
32 28 29 32 35 35 38 43 50 52 53 54 60 65 66 67 67 72 77 80 83 83 82 86 85 84 82 85 86 84 84 83 76 71 60 52 49 47 63 81 100 111 132 150
35 31 30 33 37 39 40 46 51 55 53 56 59 64 65 68 70 76 80 83 85 83 86 85 86 87 88 89 89 89 85 86 80 70 69 65 55 43 55 72 88 102 113 126
30 33 32 35 40 43 41 41 46 50 53 55 57 59 66 67 70 74 82 84 85 86 84 84 87 89 93 94 98 89 86 89 84 81 71 58 51 47 48 62 67 85 105 116
35 38 39 40 44 43 40 45 48 52 55 59 61 63 67 69 73 77 84 86 88 87 84 87 89 91 95 97 105 94 90 90 82 76 65 58 56 45 47 58 66 78 89 112
37 42 43 44 46 46 45 49 52 54 57 62 67 68 72 74 79 82 86 89 90 90 89 90 93 94 99 102 103 99 93 91 87 78 79 71 56 44 46 47 73 74 82 91
40 44 47 46 47 47 50 50 53 54 61 62 66 70 74 75 80 83 85 90 94 92 95 98 101 101 104 105 111 102 99 93 92 88 88 78 58 51 45 44 49 69 72 81
46 46 48 49 50 52 56 58 59 58 59 65 70 71 77 79 84 88 88 96 96 98 100 104 109 106 106 108 115 107 102 97 96 94 91 78 54 50 46 45 45 55 70 78
49 49 50 50 53 56 59 60 64 65 66 65 71 74 81 83 86 89 91 98 99 101 107 108 113 111 110 113 116 110 104 97 97 99 92 69 52 46 46 46 47 51 59 70
53 52 51 52 54 59 60 64 64 64 65 73 71 76 81 85 89 91 92 99 103 105 109 113 113 112 114 116 117 112 105 97 94 99 87 63 50 43 43 41 44 51 58 67
55 53 52 53 60 62 64 65 66 66 69 73 74 80 84 86 91 91 94 100 105 109 110 116 114 116 117 118 118 115 108 98 98 101 81 61 46 43 39 36 38 44 54 60
54 55 55 57 63 65 64 66 68 70 71 71 80 80 89 90 91 95 98 102 107 107 115 117 119 116 119 121 119 118 107 96 99 101 79 62 47 42 36 34 34 37 45 55
54 50 58 62 65 65 64 70 70 71 68 74 83 87 88 93 92 95 102 103 108 108 118 120 120 118 120 122 123 114 102 99 102 95 73 59 48 42 36 32 33 35 38 47
56 53 57 60 63 67 67 72 74 70 73 83 82 90 92 95 92 96 104 102 110 113 121 120 118 120 125 125 122 110 99 97 103 85 66 57 48 42 37 35 32 34 35 39
62 58 60 63 66 67 67 72 71 72 81 85 87 90 95 95 95 99 103 103 113 116 121 117 120 121 127 128 121 110 97 87 95 74 61 56 49 43 39 37 35 33 34 35
67 67 68 67 68 72 71 71 70 76 86 89 91 89 96 95 100 103 104 108 113 119 121 119 123 125 128 128 120 107 96 96 82 72 59 55 48 44 42 40 38 33 33 35
71 72 74 72 76 77 73 73 78 84 90 91 93 91 93 96 100 107 106 110 115 120 125 122 124 126 127 125 115 103 90 93 83 62 57 54 48 45 43 42 40 38 32 34
75 73 80 75 77 77 77 75 82 89 92 90 91 91 93 98 104 107 112 111 118 122 125 125 123 126 126 121 109 95 87 87 71 60 55 51 48 47 46 43 40 37 35 31
79 80 84 80 82 79 79 82 85 91 89 86 90 91 96 103 105 109 114 113 118 121 125 122 124 129 124 116 105 91 87 82 66 59 54 49 46 47 48 45 41 38 37 33
85 87 89 88 89 86 87 85 88 94 82 92 90 93 99 107 107 110 115 113 117 120 124 122 126 128 122 110 100 90 86 80 66 58 53 48 45 47 48 46 42 39 37 36
88 90 90 92 94 89 85 91 93 90 89 90 92 99 106 105 105 111 110 113 116 120 123 126 127 124 118 105 93 88 83 73 66 58 53 47 45 47 48 47 43 39 36 36
94 96 92 93 94 88 92 93 94 92 96 92 99 103 104 104 110 111 114 114 117 120 126 126 127 121 115 102 88 84 77 71 65 58 52 48 46 48 48 48 44 41 36 34
94 96 95 92 92 90 95 96 97 97 96 98 103 106 102 106 112 111 117 114 119 126 125 129 128 121 109 97 85 81 76 69 66 59 51 48 46 47 49 49 46 40 37 33
96 98 99 96 95 99 99 101 98 100 100 100 100 100 102 111 113 114 115 119 128 127 128 128 123 116 104 90 80 79 73 67 66 60 52 48 46 45 47 50 47 39 34 32
97 100 98 97 98 99 98 101 97 99 99 102 109 108 108 111 113 117 120 125 127 127 131 129 119 110 97 85 76 76 71 68 66 61 53 49 47 45 43 48 46 43 33 28
98 102 103 102 100 99 98 100 96 104 100 103 110 107 111 114 120 125 128 130 128 130 131 128 114 102 93 81 73 75 71 68 65 61 55 51 48 46 43 41 41 41 38 29
Wind_Direction
279 285 293 295 300 307 312 314 319 316 316 318 318 322 322 324 328 330 330 330 330 331 326 325 326 325 325 325 323 322 317 313 316 312 309 294 274 249 240 232 234 232 230 230
275 277 285 295 304 311 313 314 316 312 315 316 316 319 322 325 329 330 330 329 329 328 326 325 327 327 329 327 327 321 317 318 318 314 315 306 292 252 234 232 231 232 233 231
285 288 300 303 307 312 314 319 320 316 316 315 318 320 321 325 328 331 329 328 328 327 326 327 327 329 332 330 331 325 320 318 317 317 320 317 306 271 238 232 232 231 231 234
282 294 306 307 308 308 309 323 330 329 324 321 321 323 322 326 327 329 330 328 329 326 324 327 331 334 334 335 333 328 321 318 321 324 322 317 307 268 250 234 232 234 230 232
282 295 307 304 304 305 305 316 327 329 325 321 321 322 320 324 325 325 328 332 330 330 330 329 330 333 335 335 334 329 323 324 322 326 327 317 310 278 253 237 231 230 231 231
283 300 301 304 300 301 296 311 317 322 325 326 324 321 319 321 323 324 326 330 330 334 333 332 333 334 335 334 336 330 326 326 326 330 332 327 315 294 263 250 228 225 226 229
292 297 301 302 299 298 296 305 316 322 318 318 322 320 321 324 326 324 328 330 333 333 337 336 334 334 336 335 336 333 331 331 333 334 334 328 315 298 282 266 253 230 229 228
289 295 300 296 298 296 296 300 304 313 319 320 318 320 319 320 325 328 329 331 336 337 336 336 334 334 336 337 336 335 333 334 336 335 334 323 314 298 286 275 263 247 233 230
288 291 295 298 299 300 300 302 302 305 314 317 319 320 320 321 325 327 329 334 336 338 338 335 335 335 337 338 337 336 336 333 333 333 328 320 311 296 286 273 261 251 241 234
281 285 292 295 300 299 302 299 301 304 311 316 317 318 318 323 326 328 328 333 336 336 337 334 336 335 337 337 336 335 334 332 330 333 328 318 311 299 284 266 256 250 247 236
277 282 288 291 295 299 298 298 301 307 310 314 316 317 317 323 326 332 331 333 335 335 334 335 334 336 337 337 336 336 335 334 332 333 324 319 310 300 285 273 264 252 247 247
280 284 288 289 294 296 299 298 299 307 310 315 312 318 318 322 324 329 332 333 332 333 333 334 332 334 335 336 336 336 336 333 331 331 323 318 314 305 295 285 278 264 250 248
285 292 296 294 292 295 298 301 302 305 310 312 313 313 317 321 327 327 330 331 332 330 332 331 333 333 334 336 336 336 334 333 329 328 321 318 315 307 300 294 286 277 263 251
282 289 291 291 292 296 297 300 302 303 307 310 312 314 316 323 326 325 328 329 330 332 331 331 333 335 336 336 336 335 332 328 330 326 321 318 316 310 307 301 295 284 274 260
283 283 287 289 292 293 296 300 303 304 306 309 311 315 316 324 323 322 327 328 331 330 331 331 332 334 336 336 335 334 331 326 328 325 320 319 317 314 312 305 298 289 280 270
279 279 282 289 288 292 299 303 301 303 305 307 314 316 319 321 321 323 325 325 328 330 329 331 331 335 334 334 334 333 330 326 325 323 320 320 316 314 313 311 304 296 285 276
276 278 287 286 287 290 296 298 301 301 303 306 315 315 317 319 322 325 322 324 325 327 328 330 332 333 334 333 332 332 328 325 324 324 321 319 315 315 313 310 307 301 290 279
276 278 283 286 291 294 295 298 297 299 304 310 313 314 316 319 320 323 323 323 325 326 327 330 332 331 332 332 331 329 326 325 325 325 322 319 316 316 313 312 307 301 295 282
277 282 281 289 289 295 298 297 300 303 307 309 310 312 316 317 320 320 322 322 324 324 325 329 332 330 330 330 329 327 325 327 327 327 323 318 317 316 313 312 311 304 297 290
277 279 284 287 288 294 296 298 300 303 310 304 309 312 313 316 319 320 320 320 322 323 327 329 330 329 329 329 328 325 324 326 328 327 323 319 318 315 312 312 311 307 300 292
278 281 283 285 289 292 296 295 297 303 302 304 308 309 311 317 317 316 317 319 321 323 327 328 328 329 328 327 327 323 325 328 330 328 323 320 320 316 313 311 312 308 299 291
276 279 282 283 286 292 291 293 295 298 301 303 304 307 311 312 311 315 316 318 320 325 325 326 328 328 326 326 324 324 326 330 330 328 324 323 323 318 314 313 313 309 302 292
272 275 279 281 285 289 288 290 293 297 300 300 303 306 308 309 312 312 313 318 322 322 324 325 326 326 324 324 322 324 326 329 330 328 324 324 324 321 316 314 313 310 302 294
269 273 275 277 281 283 285 288 292 296 297 299 303 306 305 308 309 311 316 319 319 321 324 325 325 325 323 322 320 324 326 330 331 328 325 324 325 324 317 315 314 313 304 292
267 269 273 274 278 282 285 288 290 296 296 298 300 302 303 308 310 314 315 316 319 320 322 323 324 322 321 318 321 326 327 330 331 327 324 324 326 325 320 318 317 315 308 296
266 269 270 271 281 281 285 287 291 293 294 297 299 300 306 308 312 312 314 316 316 319 321 321 322 320 318 316 322 327 328 330 330 326 323 324 325 325 322 322 320 319 316 304
Height
10695 10692 10691 10689 10686 10682 10678 10673 10669 10664 10660 10653 10644 10635 10628 10623 10617 10608 10599 10589 10580 10571 10560 10549 10537 10525 10513 10497 10482 10465 10453 10441 10435 10424 10419 10418 10415 10415 10416 10418 10428 10436 10445 10455
10687 10683 10682 10680 10678 10674 10670 10666 10661 10655 10650 10645 10637 10628 10620 10613 10607 10598 10588 10578 10570 10560 10548 10536 10522 10509 10495 10479 10462 10448 10434 10423 10415 10404 10395 10392 10387 10384 10387 10390 10395 10402 10411 10424
10679 10677 10675 10672 10669 10665 10662 10659 10653 10647 10641 10635 10628 10619 10610 10605 10597 10588 10578 10567 10556 10544 10532 10518 10505 10490 10476 10460 10443 10428 10414 10403 10388 10377 10368 10362 10358 10358 10359 10362 10368 10372 10382 10391
10672 10670 10666 10663 10660 10658 10654 10650 10645 10639 10632 10626 10619 10614 10601 10595 10588 10578 10567 10556 10545 10533 10520 10506 10490 10474 10457 10440 10426 10411 10399 10383 10367 10352 10345 10335 10332 10330 10333 10337 10340 10346 10355 10360
10663 10661 10658 10655 10652 10650 10646 10642 10638 10631 10625 10618 10609 10603 10591 10585 10577 10567 10556 10545 10533 10519 10504 10490 10475 10459 10442 10425 10407 10389 10374 10360 10346 10331 10321 10313 10306 10304 10305 10308 10314 10318 10325 10333
10654 10652 10650 10648 10645 10641 10637 10634 10630 10624 10617 10611 10601 10592 10583 10576 10567 10557 10545 10532 10520 10506 10491 10475 10461 10445 10429 10410 10391 10371 10355 10340 10322 10307 10296 10285 10278 10277 10278 10280 10285 10290 10296 10302
10645 10643 10642 10640 10637 10632 10628 10624 10620 10617 10609 10601 10593 10585 10574 10567 10558 10546 10534 10520 10505 10490 10476 10461 10445 10428 10411 10391 10371 10353 10333 10316 10299 10284 10271 10263 10257 10252 10252 10253 10256 10262 10268 10274
10636 10634 10633 10630 10628 10624 10619 10614 10609 10606 10601 10595 10585 10576 10563 10555 10547 10534 10521 10507 10491 10476 10461 10447 10432 10415 10394 10374 10354 10334 10316 10297 10280 10268 10257 10245 10240 10234 10231 10230 10234 10237 10244 10250
10625 10624 10622 10620 10617 10614 10609 10603 10598 10593 10590 10584 10576 10565 10552 10544 10534 10521 10508 10495 10477 10462 10446 10432 10416 10399 10378 10357 10336 10320 10301 10283 10267 10253 10243 10232 10224 10218 10215 10214 10214 10217 10222 10229
10613 10614 10612 10610 10607 10602 10598 10592 10586 10580 10578 10573 10567 10556 10541 10534 10522 10509 10495 10481 10464 10449 10434 10420 10401 10382 10362 10343 10324 10307 10289 10272 10255 10239 10227 10217 10209 10204 10201 10200 10199 10199 10200 10206
10600 10602 10602 10599 10595 10590 10585 10580 10573 10568 10564 10557 10552 10545 10530 10523 10511 10496 10482 10467 10451 10437 10421 10404 10386 10366 10348 10330 10309 10292 10272 10252 10238 10224 10212 10204 10198 10191 10186 10185 10183 10183 10184 10187
10586 10590 10590 10588 10583 10578 10573 10567 10561 10556 10552 10545 10536 10535 10517 10509 10496 10482 10468 10454 10438 10422 10406 10390 10373 10354 10335 10316 10296 10275 10257 10238 10223 10211 10197 10189 10183 10177 10173 10169 10167 10166 10168 10169
10572 10579 10577 10575 10571 10566 10562 10554 10549 10544 10538 10532 10523 10513 10505 10496 10484 10468 10454 10441 10426 10410 10395 10376 10359 10341 10322 10300 10280 10262 10243 10228 10213 10200 10187 10178 10171 10164 10160 10157 10153 10152 10153 10155
10562 10563 10562 10560 10560 10556 10551 10544 10537 10531 10526 10518 10509 10500 10487 10482 10469 10455 10442 10428 10413 10399 10381 10362 10345 10328 10306 10286 10267 10251 10233 10216 10202 10187 10175 10166 10160 10153 10147 10144 10141 10139 10139 10141
10550 10551 10548 10548 10545 10543 10542 10536 10527 10518 10511 10503 10498 10487 10469 10465 10454 10442 10429 10413 10400 10385 10367 10350 10331 10312 10293 10274 10256 10241 10225 10207 10192 10177 10165 10155 10148 10141 10136 10132 10128 10126 10125 10126
10535 10538 10535 10536 10530 10529 10531 10524 10511 10504 10497 10489 10484 10474 10456 10451 10439 10426 10414 10400 10387 10372 10355 10337 10318 10299 10281 10262 10245 10230 10214 10198 10181 10168 10155 10145 10138 10132 10126 10121 10118 10115 10113 10112
10520 10518 10517 10525 10515 10516 10523 10506 10497 10492 10480 10473 10471 10457 10449 10436 10426 10414 10401 10388 10375 10360 10343 10326 10306 10288 10270 10252 10234 10219 10203 10188 10173 10159 10146 10137 10129 10121 10116 10112 10107 10103 10102 10101
10507 10502 10498 10504 10503 10505 10503 10494 10482 10476 10468 10458 10452 10444 10436 10424 10413 10402 10389 10376 10362 10348 10331 10314 10294 10277 10259 10242 10225 10211 10195 10179 10164 10151 10138 10129 10120 10111 10106 10102 10097 10093 10089 10089
10488 10484 10482 10484 10484 10491 10488 10477 10469 10461 10459 10444 10437 10432 10422 10410 10401 10388 10377 10365 10351 10336 10319 10301 10283 10267 10248 10231 10215 10201 10186 10169 10156 10141 10130 10120 10111 10102 10096 10092 10088 10083 10078 10076
10471 10467 10467 10469 10465 10473 10467 10459 10447 10442 10453 10422 10425 10416 10407 10398 10389 10379 10365 10353 10340 10325 10308 10288 10272 10254 10236 10218 10202 10188 10173 10158 10146 10133 10122 10112 10102 10094 10087 10081 10078 10072 10068 10064
10454 10452 10451 10447 10448 10458 10450 10437 10432 10432 10429 10421 10411 10401 10392 10385 10375 10365 10353 10341 10327 10313 10295 10278 10259 10240 10222 10206 10192 10177 10163 10147 10135 10123 10113 10104 10094 10085 10078 10072 10068 10063 10058 10053
10440 10436 10438 10432 10434 10441 10429 10425 10419 10417 10412 10408 10397 10387 10380 10371 10361 10350 10338 10329 10316 10299 10284 10266 10247 10229 10210 10196 10182 10166 10152 10138 10126 10116 10105 10094 10084 10076 10068 10062 10058 10052 10047 10043
10424 10422 10422 10422 10423 10418 10408 10408 10405 10404 10398 10390 10382 10374 10366 10354 10346 10336 10325 10313 10299 10286 10271 10253 10235 10217 10198 10185 10170 10153 10141 10128 10116 10107 10097 10087 10078 10069 10059 10052 10047 10043 10036 10032
10407 10407 10407 10405 10406 10400 10394 10393 10392 10389 10383 10374 10365 10358 10349 10342 10332 10320 10308 10297 10284 10271 10257 10239 10223 10204 10187 10174 10160 10143 10130 10118 10106 10097 10088 10080 10071 10063 10053 10044 10036 10032 10026 10022
10390 10389 10387 10389 10387 10383 10380 10377 10377 10372 10364 10357 10349 10342 10333 10325 10312 10301 10292 10280 10269 10254 10241 10224 10210 10192 10176 10165 10149 10131 10119 10107 10096 10087 10079 10071 10063 10057 10050 10036 10027 10019 10016 10012
10371 10365 10367 10370 10368 10369 10363 10362 10359 10353 10347 10339 10331 10323 10314 10305 10294 10284 10275 10263 10250 10236 10224 10208 10196 10179 10163 10153 10137 10119 10108 10097 10087 10078 10070 10061 10054 10047 10041 10034 10022 10011 10004 10001